Details From MUSC - Abel Santamaria
To TNCM - St Maarten - Princess Juliana Intl
Flight Number -
Tags Decoded
Created
Modified
Stats Distance 981 nm / 1,816 km
Max Altitude 0 ft / 0 m
Waypoints 9
Social Downloads 1
Likes 0
Share VATSIM

Download

Looking for another format? Having issues loading an existing format? Contact us
Advertisement - Login to hide

Notes

Decoded

Route

CLARA UCM POBIN PTA KATOK BQN SJU STT JUICE

ID Type Via Altitude Latitude Longitude Leg Dist Tot Dist Heading (true) Name
O CLARA FIX - 0 ft / 0 m 22.48083˚ -79.99333˚ - 0 nm - -
UCM VOR - 0 ft / 0 m 21.43744˚ -77.80084˚ 137 nm 137 nm 117° / 118° CAMAGUEY VOR-DME
POBIN FIX - 0 ft / 0 m 19.39500˚ -70.95722˚ 404 nm 541 nm 106° / 109° -
PTA VOR - 0 ft / 0 m 19.75917˚ -70.57056˚ 30 nm 572 nm 45° / 45° PUERTO PLATA VOR-DME
KATOK FIX - 0 ft / 0 m 18.83076˚ -68.00000˚ 156 nm 728 nm 111° / 111° -
BQN VOR - 0 ft / 0 m 18.49800˚ -67.10836˚ 54 nm 782 nm 111° / 112° BORINQUEN VORTAC
SJU VOR - 0 ft / 0 m 18.44628˚ -65.98950˚ 63 nm 846 nm 93° / 93° SAN JUAN VORTAC
STT VOR - 0 ft / 0 m 18.35581˚ -65.02456˚ 55 nm 901 nm 95° / 96° ST THOMAS VOR-DME
O JUICE FIX - 0 ft / 0 m 18.13094˚ -63.66667˚ 78 nm 980 nm 100° / 100° -

Altitude Profile

Advertisement - Login to hide

Weather


0- 5 10 15 20 25 30 35+ Temperature / ° C

Clouds and Precipitation
Forecast for 2018-05-22 12:00 UTC. Updated an hour ago

Ground ~20,000 ft ~40,000 ft Winds

MUSC

Details ICAO MUSC (SNU)
Name ABEL SANTAMARIA
Region Cuba
Timezone America/Havana (UTC-4.0)
Stats Elevation 338 ft / 103 m (AMSL)
Location 22.492193° -79.943613°
Runways 1
Magnetic Variation 6.397° W

METAR

MUSC 220955Z 12007KT 9000 BKN025 22/21 Q1015

Decode

TAF

TAF AMD MUSC 220000Z 2200/2224 VRB03KT 9000 SCT020 TEMPO 2200/2204 3000 SHRA BKN015 BECMG 2215/2217 12010KT TEMPO 2218/2224 5000 TSRA RA SCT018CB BKN040

Decode

Departure Runways

ID Width Length Bearing (true) Bearing (mag) Surface Threshold Offset Overrun Length
08 148 ft / 45 m 9,888 ft / 3,014 m 76.05° 82.45° Asphalt 0 ft / 0 m 0 ft / 0 m
26 148 ft / 45 m 9,888 ft / 3,014 m 256.06° 262.46° Asphalt 0 ft / 0 m 0 ft / 0 m

TNCM

Details ICAO TNCM (SXM)
Name St Maarten - Princess Juliana Intl
Region Caribbean Netherlands, Aruba, Curaçao, Sint Maarten
Timezone Unknown (UTC+0.0)
Stats Elevation 12 ft / 4 m (AMSL)
Location 18.040889° -63.108974°
Runways 1
Magnetic Variation 14.337° W

METAR

TNCM 221000Z 08011KT 050V110 9999 SCT017 26/22 Q1017 A3003

Decode

TAF

TAF TNCM 220540Z 2206/2306 09012KT P6SM VCSH SCT020

Decode

Destination Runways

ID Width Length Bearing (true) Bearing (mag) Surface Threshold Offset Overrun Length
10 148 ft / 45 m 7,464 ft / 2,275 m 81.43° 95.77° Asphalt 0 ft / 0 m 151 ft / 46 m
28 148 ft / 45 m 7,464 ft / 2,275 m 261.44° 275.78° Asphalt 397 ft / 121 m 0 ft / 0 m